Traverse City

Airport
ICAO code: 
KTVC
Summary
ICAO Region: 
NAM
Territory: 
Location: 
Traverse City, Grand Traverse County, Michigan,
Coordinates: 
Aerial View: 
44° 44' 29.046" N, 85° 34' 55.917" W
Metar
Observation
KTVC 191208Z 32014G25KT 9SM -SN BKN022 BKN031 OVC040 M01/M05 A2966 RMK AO2 SNB01 PRESRR P0000 T10061050
Station
Traverse City, Cherry Capital Airport
Date/Time
2022-01-19 12:08:00
Wind direction
320°
Wind speed
14 kts
Lowest cloud amount
broken clouds
Temperature
-0.6°C
Dew point
-5°C
Humidity
72%
Weather condition
light snow

Description

Cherry Capital Airport is a public airport located 3 km south of the central business district of Traverse City, in Grand Traverse County, Michigan, United States.

Climatology

Humid Continental climate (Köppen climate classification Dfb) - Variable weather patterns and a large seasonal temperature variance. Summers are often warm and humid with frequent thunderstorms and winters can be very cold with frequent snowfall and persistent snow cover.

Runways

Designator Length Width Surface Rops
5/23 977 23 ASP No/No
18/36 1640 46 ASP Yes/Yes
10/28 1982 46 ASP Yes/Yes
Airport map: 
Aerial View: 

Accidents and Serious Incidents at or in the vicinity of KTVC

SKYbrary Partners:

Safety knowledge contributed by: